Theta_e
292 292 291 291 291 292 291 291 292 293 294 295 295 294 294 293 293 292 291 290 289 289 289 289 288 288 287 287 288 289 290 291 286 284 284 284 279 279 280 280 280 279 279
290 290 289 289 289 289 289 289 290 289 291 291 291 290 290 290 289 289 288 288 287 286 286 286 285 285 284 284 284 282 283 286 285 280 279 278 277 278 278 278 280 281 279
289 289 288 288 287 287 287 287 288 288 288 288 288 288 288 288 287 287 287 286 285 284 284 283 282 282 280 280 280 280 280 282 281 280 277 277 277 277 278 278 278 278 279
287 287 286 286 287 286 286 286 286 287 287 286 286 286 286 286 286 286 285 284 283 282 282 282 281 280 279 278 279 279 280 279 279 278 277 276 276 277 277 275 275 276 276
285 285 284 285 285 285 286 286 286 286 286 286 285 286 286 285 285 284 283 282 281 280 280 281 281 282 284 283 279 278 278 278 278 277 276 275 275 275 274 275 275 274 274
283 283 283 283 282 282 283 284 285 285 285 284 284 284 284 285 286 285 283 281 280 279 277 278 278 279 282 284 284 284 281 277 277 276 275 275 274 274 275 274 273 271 269
281 281 281 281 281 281 281 282 283 283 283 282 282 282 281 283 286 284 282 279 278 277 277 277 278 278 278 278 281 281 281 282 281 276 275 274 274 274 274 273 273 272 271
280 280 281 281 281 281 280 280 280 280 280 280 279 280 280 283 285 284 282 279 279 278 278 278 278 278 278 277 277 277 277 277 277 276 275 275 274 275 274 274 273 271 270
279 279 280 280 280 279 279 278 278 278 279 279 279 279 279 280 284 283 281 279 279 278 279 278 278 278 281 281 277 277 276 276 279 278 277 277 277 276 276 272 263 263 262
278 279 280 280 279 278 278 278 279 279 279 279 279 278 278 279 283 283 280 279 278 278 279 279 280 279 281 279 276 277 274 275 275 273 274 274 274 274 275 272 270 261 261
279 279 279 279 279 278 278 278 278 278 278 277 277 277 278 278 280 282 282 279 278 277 278 277 278 280 280 279 278 276 276 275 272 270 270 270 271 272 271 272 272 268 262
277 276 275 276 278 278 277 276 276 276 275 274 275 274 276 278 280 281 281 280 280 278 277 277 277 279 279 278 276 277 276 273 265 263 263 265 267 268 269 268 267 266 268
274 272 271 273 276 276 275 275 274 274 274 274 274 273 273 276 276 281 281 280 279 277 277 277 279 279 278 277 277 277 271 266 264 262 264 267 268 268 265 262 262 261 262
272 271 270 271 271 272 275 276 274 273 272 274 273 273 271 272 273 274 276 275 277 276 276 273 276 276 277 276 271 273 270 268 266 265 264 265 263 261 261 262 260 260 259
273 272 274 272 271 272 273 274 275 274 275 273 273 274 270 269 272 276 275 271 269 274 266 265 266 267 267 267 267 266 267 265 264 263 261 262 263 262 262 261 260 257 259
273 275 276 276 275 275 274 272 279 280 281 281 281 276 275 278 279 280 281 281 280 279 264 262 264 267 268 268 267 267 265 265 266 265 262 262 264 263 264 260 260 257 260
274 274 275 275 275 274 274 273 273 272 280 280 280 281 281 279 279 280 280 279 280 279 264 263 267 268 268 268 268 266 266 265 263 263 263 263 263 262 259 263 261 258 262
269 271 276 276 275 272 273 271 267 266 266 268 275 279 280 281 281 281 280 278 266 269 263 266 267 268 269 269 267 264 266 263 261 263 262 261 260 259 257 260 262 258 260
269 270 270 269 269 272 272 265 265 263 264 263 262 271 269 279 281 281 282 273 269 268 267 267 267 267 268 267 267 265 264 263 263 262 259 260 261 256 260 261 261 259 257
268 267 268 268 266 266 266 266 263 263 262 263 263 265 261 262 262 263 263 261 260 265 266 267 268 268 268 267 267 265 263 261 262 261 262 261 261 258 261 261 259 258 257
267 264 266 264 266 267 266 266 265 264 265 264 266 264 272 265 266 264 263 263 265 267 267 265 266 264 265 265 265 264 263 265 262 262 261 261 258 258 260 261 261 256 257
264 265 264 267 263 264 264 264 265 264 265 265 265 261 275 268 265 265 263 263 263 263 263 263 263 263 263 263 263 262 262 262 261 260 261 261 259 258 258 256 257 255 255
262 262 262 260 262 262 261 261 264 264 264 264 262 263 261 264 265 263 263 263 261 262 261 260 261 262 261 260 260 261 262 264 263 260 261 260 260 259 256 257 256 256 252
261 263 264 263 261 262 263 263 262 262 262 262 260 262 262 262 262 262 262 261 258 260 258 259 260 261 261 259 259 259 261 263 258 259 260 261 261 259 257 256 257 254 254
258 259 260 260 260 260 259 259 259 258 260 261 261 258 257 259 259 260 261 259 259 258 259 258 258 258 259 259 260 258 258 263 263 263 260 259 261 260 257 256 255 252 252
256 257 257 257 257 257 257 257 258 257 259 259 259 259 259 259 260 259 259 257 258 258 258 257 257 257 257 258 257 259 259 264 264 263 262 262 262 261 258 258 255 254 255
Wind_Speed
3 6 8 6 9 6 8 9 7 7 8 7 7 7 7 7 8 8 8 8 9 7 6 6 7 5 4 4 4 3 4 3 4 2 1 1 3 1 3 3 3 2 3
5 8 8 11 10 9 6 8 7 7 7 7 6 7 7 7 8 9 8 8 9 8 7 7 7 6 8 6 4 5 5 3 4 4 2 1 2 2 2 3 3 3 4
5 8 8 9 9 7 7 9 8 7 7 7 7 8 8 8 9 8 10 9 9 9 8 8 6 6 6 4 5 5 5 5 4 4 3 1 1 2 2 2 3 4 4
4 8 10 9 8 9 6 6 6 6 8 8 8 8 8 9 9 10 9 10 10 9 8 8 7 6 6 6 5 6 5 5 4 4 3 3 2 2 3 2 3 2 3
8 8 8 7 7 6 5 5 6 7 7 8 8 8 9 8 6 8 8 9 9 9 8 8 7 9 14 11 4 5 5 4 3 3 3 2 2 3 3 3 3 4 2
6 6 6 6 6 5 5 5 6 7 7 8 8 8 8 6 15 14 10 8 7 7 7 6 5 6 10 16 16 16 10 4 3 2 1 2 2 2 2 2 2 3 3
5 5 5 5 6 5 5 5 6 6 7 8 7 7 7 7 14 14 12 6 6 5 5 5 5 4 6 5 11 13 12 14 11 3 3 2 2 1 2 2 2 2 2
5 5 4 5 6 5 5 5 6 5 6 6 6 5 6 7 13 14 12 6 6 6 5 5 5 4 5 4 5 6 6 5 5 4 4 2 2 1 2 2 2 4 4
5 5 4 5 5 5 5 5 4 5 5 5 5 6 6 5 11 11 8 5 6 5 4 4 4 4 7 7 4 4 3 3 4 5 3 3 3 3 3 2 3 3 4
5 5 5 5 5 5 5 5 3 3 4 5 6 5 5 5 8 9 6 3 4 3 3 3 6 4 7 6 3 2 2 1 2 3 2 3 2 2 2 2 1 2 1
5 4 4 5 5 5 4 3 4 4 4 4 5 4 4 3 4 6 5 3 2 3 2 1 1 4 3 4 5 3 2 2 3 2 2 2 2 3 2 2 2 2 2
5 5 4 3 3 3 5 2 4 5 5 3 4 2 1 2 3 3 3 4 4 3 3 2 2 2 1 1 2 2 2 3 2 2 2 2 2 2 2 2 3 3 4
6 4 3 3 4 4 5 4 3 3 3 3 3 2 2 0 1 4 4 3 2 2 2 3 4 3 3 2 5 5 1 1 0 1 2 3 2 2 2 3 3 4 6
7 5 3 3 2 2 1 2 3 2 1 2 2 2 2 2 2 1 0 1 1 1 1 0 2 3 5 5 3 4 2 3 3 3 3 2 2 2 2 1 2 3 3
4 4 5 4 4 3 2 3 3 3 4 3 3 3 3 3 4 7 6 3 2 4 2 2 2 1 2 2 3 3 3 1 3 2 2 3 4 1 3 1 2 1 3
5 4 5 5 4 4 3 2 6 8 9 9 7 5 3 6 5 7 10 10 10 9 3 2 2 3 3 3 4 3 2 4 4 3 3 3 4 3 4 2 2 3 4
6 6 4 4 4 4 3 4 4 3 10 10 10 11 11 8 9 9 10 10 11 10 3 3 4 4 4 4 4 3 4 3 2 3 3 4 3 3 2 5 3 2 5
5 6 5 5 4 3 4 3 2 3 3 3 7 11 11 12 12 11 10 8 3 5 2 4 5 5 5 5 4 3 4 3 2 4 4 3 4 3 3 4 5 4 5
5 4 4 3 3 4 3 2 3 3 3 3 3 4 3 9 13 14 15 5 5 6 5 5 5 5 5 5 5 4 4 4 4 4 4 4 4 3 5 5 5 6 4
5 5 5 4 3 4 4 4 3 3 3 4 4 5 2 2 1 4 3 3 3 4 4 6 5 6 5 5 5 5 4 3 4 4 5 5 5 4 6 6 5 5 4
4 3 5 3 4 4 4 5 3 3 4 4 6 4 10 5 6 5 4 4 6 6 5 4 4 4 4 4 4 4 4 5 4 5 4 5 4 4 5 6 5 3 4
3 3 4 5 3 3 4 4 4 4 5 5 5 4 15 3 5 5 5 5 5 5 4 4 5 5 5 4 4 5 5 6 5 5 5 5 4 5 4 4 4 4 4
3 3 3 2 3 3 3 4 4 5 5 5 4 4 3 5 5 5 5 5 4 5 4 4 5 5 4 4 4 5 6 7 6 5 6 5 5 5 4 5 4 4 3
3 4 5 4 4 4 4 4 4 4 4 4 3 4 4 4 5 6 5 4 3 4 3 4 4 6 5 5 4 5 6 7 4 5 7 7 7 5 4 4 4 4 4
2 2 2 2 2 2 2 3 3 3 4 4 4 3 3 4 5 5 5 4 4 4 5 4 4 6 9 10 10 9 8 12 8 6 5 6 9 7 4 4 4 4 3
1 1 2 1 2 2 2 3 4 3 4 4 4 4 4 5 5 4 4 4 4 5 6 4 6 9 10 9 10 11 11 13 11 11 7 6 7 6 5 7 6 4 5
Wind_Direction
76 85 91 81 71 71 61 58 54 47 49 55 64 72 73 69 80 91 85 89 89 82 66 69 63 46 56 36 30 21 46 45 101 88 96 91 50 40 3 4 349 10 350
68 76 65 56 53 53 48 66 68 60 57 69 71 74 72 76 75 77 80 74 79 73 66 65 56 62 55 40 40 39 51 40 114 129 123 85 65 359 358 20 351 23 345
49 68 75 79 69 62 61 51 57 68 64 65 68 70 73 73 79 78 78 76 71 66 63 65 53 59 58 45 42 51 40 48 61 115 130 89 67 20 4 352 346 339 332
94 72 60 61 63 51 56 65 73 81 87 82 74 74 74 76 75 78 80 82 78 71 65 62 52 51 62 57 51 50 57 65 64 81 69 72 50 18 48 357 333 326 334
63 66 64 58 61 59 58 66 74 77 80 83 86 80 79 83 84 90 93 93 93 88 72 69 60 62 69 69 65 48 60 62 64 65 72 69 26 22 25 332 306 314 300
69 68 73 77 81 81 67 56 66 73 74 77 72 75 80 87 101 106 106 103 99 95 95 83 67 54 69 73 69 68 66 68 76 96 64 77 61 14 342 341 320 348 334
85 94 87 83 84 80 85 79 73 73 79 73 70 76 75 83 99 100 96 91 100 97 97 95 79 63 60 65 74 70 56 61 64 87 99 58 119 348 310 336 339 322 274
82 82 88 100 96 81 72 75 73 70 81 91 82 68 76 89 103 105 100 89 87 81 85 85 87 81 86 89 83 73 61 56 56 60 75 123 128 72 33 329 313 300 293
104 99 98 99 102 102 88 84 84 87 77 81 91 83 76 83 110 112 99 84 84 81 87 90 93 81 69 75 77 89 99 77 60 56 65 55 39 18 28 47 358 31 325
146 133 126 121 114 109 108 98 68 71 103 104 102 96 97 94 103 108 111 108 114 113 106 113 102 93 75 73 72 81 98 40 11 2 353 349 343 312 2 103 152 134 244
136 126 118 122 124 129 116 109 114 98 86 76 87 89 97 102 105 109 131 130 142 142 127 120 69 111 84 51 57 48 43 50 335 351 329 325 321 294 267 212 203 166 170
129 116 115 112 124 128 129 116 127 128 123 119 117 84 52 86 116 125 134 137 155 143 179 180 179 181 162 26 37 341 324 25 28 348 345 306 273 252 238 243 246 243 238
131 141 152 143 145 152 142 147 131 135 148 167 159 159 203 196 346 148 134 130 129 136 144 197 202 226 257 282 293 278 129 113 289 326 275 257 233 238 276 310 300 265 249
150 158 154 136 147 150 144 163 143 159 169 175 184 200 211 211 219 220 201 134 244 103 219 311 219 228 254 267 262 285 204 191 204 225 247 260 303 325 310 242 287 324 324
164 168 182 185 189 193 206 185 193 217 185 187 213 186 179 235 235 218 208 208 207 220 105 39 18 339 287 286 280 258 250 233 233 225 234 270 275 269 267 234 255 322 229
172 188 199 196 197 191 189 260 252 235 230 234 225 194 226 225 219 232 229 231 229 227 72 167 231 231 244 252 258 262 245 231 238 235 242 236 261 263 278 270 227 216 270
190 178 183 198 197 187 188 204 230 290 247 240 245 246 242 234 249 251 246 250 248 241 183 217 223 229 241 242 238 226 243 230 228 232 235 240 248 262 254 282 262 236 280
191 191 190 192 199 198 207 210 179 197 230 262 260 249 250 250 248 246 245 261 302 276 189 219 234 233 238 236 234 218 243 247 235 238 240 234 243 237 268 266 268 256 269
199 210 202 190 187 204 204 195 201 206 225 244 326 301 330 264 255 254 250 224 215 231 234 238 233 235 238 236 236 230 221 226 228 235 240 235 241 206 257 252 262 255 249
207 206 184 193 187 195 197 199 205 214 224 232 238 235 264 61 274 251 246 234 227 240 232 238 238 235 234 231 239 231 235 232 241 239 244 238 241 211 249 260 247 258 262
191 179 187 169 199 204 197 209 203 201 224 229 242 222 234 209 237 230 240 241 243 251 250 234 246 238 240 240 236 233 231 246 232 242 240 245 226 248 240 249 260 240 247
178 184 184 203 182 201 211 207 209 215 223 232 249 252 257 246 223 239 234 236 236 235 236 235 244 235 235 229 228 234 240 245 238 234 247 246 229 235 238 241 244 238 244
178 180 190 203 195 196 213 212 218 222 233 236 236 249 239 250 249 244 248 248 239 244 241 227 243 257 240 239 227 228 239 248 237 206 235 244 245 239 221 245 236 248 232
193 195 199 204 195 210 218 227 227 232 240 250 249 253 250 248 252 254 255 255 255 259 248 249 242 245 257 252 243 236 240 253 225 218 219 244 259 244 234 235 235 234 240
202 217 208 197 205 217 226 240 238 240 245 249 261 254 259 264 268 264 263 258 263 263 263 247 244 251 259 258 257 251 247 259 255 237 211 221 245 240 219 220 222 228 230
202 226 231 231 246 237 228 242 250 246 254 257 254 253 254 261 263 268 271 268 265 262 262 256 253 256 261 262 257 258 253 255 249 242 238 234 243 242 215 232 228 217 227